^^
Datos históricos de la estación: Murcia-Puente Tocinos
Diario Informe para Junio 12, 2019 Unidades:  Métrico    Inglés   Ambas
Diario Semanal Mensual Anual Configurable
  Máximo: Mínimo: Media:
Temperatura: 24.1 °C 16.6 °C 20.2 °C
Punto de rocio: 16.1 °C 8.0 °C 12.4 °C
Humedad: 80% 40% 62%
Velocidad viento: 20.9km/h 0.0km/h 9.8km/h
Racha viento: 40.2km/h - -
Viento- - East
Presión: 1013.5 hPa 1010.4 hPa -
Precipitación: 0.0 mm    
Historical Graphs
 
 
Tabla de datos para Junio 12, 2019
Hora Temperatura Punto de rocio Presión Viento Velocidad viento Racha viento Humedad Intensidad lluvia(por hora) Nubes
00:00 19.1 °C 13.9 °C 1011.6 hPa NNE 4.8 km/h 9.7 km/h 72% 0.0 mm CLR
00:05 19.0 °C 13.8 °C 1011.7 hPa NNE 4.8 km/h 9.7 km/h 72% 0.0 mm CLR
00:10 19.0 °C 13.8 °C 1011.7 hPa ENE 3.9 km/h 7.4 km/h 72% 0.0 mm CLR
00:15 18.9 °C 13.8 °C 1011.7 hPa NE 3.2 km/h 9.7 km/h 72% 0.0 mm CLR
00:20 18.9 °C 13.5 °C 1011.8 hPa NE 6.4 km/h 9.5 km/h 71% 0.0 mm CLR
00:25 18.9 °C 13.5 °C 1011.8 hPa NE 8.0 km/h 9.7 km/h 71% 0.0 mm CLR
00:30 18.9 °C 13.5 °C 1011.8 hPa NE 6.9 km/h 9.3 km/h 71% 0.0 mm CLR
00:35 18.9 °C 13.5 °C 1011.9 hPa NE 8.0 km/h 11.3 km/h 71% 0.0 mm CLR
00:40 18.9 °C 13.5 °C 1011.9 hPa ENE 5.8 km/h 7.4 km/h 71% 0.0 mm CLR
00:45 18.9 °C 13.5 °C 1011.9 hPa NE 4.8 km/h 11.3 km/h 71% 0.0 mm CLR
00:50 19.0 °C 13.6 °C 1012.1 hPa ENE 5.8 km/h 7.4 km/h 71% 0.0 mm CLR
00:55 19.0 °C 13.6 °C 1012.1 hPa East 5.8 km/h 11.1 km/h 71% 0.0 mm CLR
01:00 19.0 °C 13.6 °C 1012.1 hPa NE 4.8 km/h 11.3 km/h 71% 0.0 mm CLR
01:05 19.0 °C 13.7 °C 1012.2 hPa NE 4.8 km/h 12.9 km/h 71% 0.0 mm CLR
01:10 19.0 °C 13.6 °C 1012.2 hPa NNE 8.4 km/h 8.4 km/h 71% 0.0 mm CLR
01:15 19.0 °C 13.6 °C 1012.2 hPa NE 8.0 km/h 12.9 km/h 71% 0.0 mm CLR
01:20 19.0 °C 13.6 °C 1012.1 hPa ENE 8.0 km/h 12.9 km/h 71% 0.0 mm CLR
01:25 18.9 °C 13.7 °C 1012.1 hPa ENE 8.0 km/h 14.5 km/h 72% 0.0 mm CLR
01:30 18.8 °C 13.7 °C 1012.1 hPa ENE 6.9 km/h 13.0 km/h 72% 0.0 mm CLR
01:35 18.7 °C 13.6 °C 1012.0 hPa ENE 8.0 km/h 12.9 km/h 72% 0.0 mm CLR
01:40 18.6 °C 13.4 °C 1012.0 hPa NE 6.9 km/h 9.3 km/h 72% 0.0 mm CLR
01:45 18.6 °C 13.4 °C 1012.0 hPa NE 8.0 km/h 11.3 km/h 72% 0.0 mm CLR
01:50 18.4 °C 13.3 °C 1012.0 hPa NE 8.0 km/h 14.5 km/h 72% 0.0 mm CLR
01:55 18.4 °C 13.4 °C 1012.0 hPa NE 8.0 km/h 14.5 km/h 73% 0.0 mm CLR
02:00 18.4 °C 13.3 °C 1012.0 hPa NE 8.0 km/h 11.3 km/h 72% 0.0 mm CLR
02:05 18.3 °C 13.2 °C 1012.0 hPa ENE 8.0 km/h 14.5 km/h 72% 0.0 mm CLR
02:10 18.3 °C 13.2 °C 1012.0 hPa East 6.4 km/h 9.3 km/h 72% 0.0 mm CLR
02:15 18.2 °C 13.1 °C 1012.0 hPa ENE 8.0 km/h 14.5 km/h 72% 0.0 mm CLR
02:20 18.1 °C 12.8 °C 1012.0 hPa NE 8.0 km/h 16.1 km/h 71% 0.0 mm CLR
02:25 18.1 °C 12.8 °C 1012.0 hPa NE 8.0 km/h 14.5 km/h 71% 0.0 mm CLR
02:30 18.0 °C 12.7 °C 1012.0 hPa NE 8.0 km/h 14.5 km/h 71% 0.0 mm CLR
02:35 18.0 °C 12.7 °C 1011.8 hPa NE 8.0 km/h 12.9 km/h 71% 0.0 mm CLR
02:40 18.0 °C 12.7 °C 1011.8 hPa North 7.6 km/h 7.4 km/h 71% 0.0 mm CLR
02:45 18.0 °C 12.7 °C 1011.8 hPa NE 8.0 km/h 12.9 km/h 71% 0.0 mm CLR
02:50 18.0 °C 12.7 °C 1011.7 hPa NE 8.0 km/h 16.1 km/h 71% 0.0 mm CLR
02:55 17.9 °C 12.6 °C 1011.7 hPa NE 8.0 km/h 16.1 km/h 71% 0.0 mm CLR
03:00 17.9 °C 12.6 °C 1011.7 hPa NE 9.7 km/h 16.1 km/h 71% 0.0 mm CLR
03:05 17.9 °C 12.6 °C 1011.6 hPa NE 9.7 km/h 16.1 km/h 71% 0.0 mm CLR
03:10 18.0 °C 12.7 °C 1011.6 hPa NE 8.0 km/h 11.3 km/h 71% 0.0 mm CLR
03:15 18.0 °C 12.7 °C 1011.6 hPa NE 8.0 km/h 19.3 km/h 71% 0.0 mm CLR
03:20 18.0 °C 12.7 °C 1011.7 hPa NNE 10.0 km/h 13.0 km/h 71% 0.0 mm CLR
03:25 18.0 °C 12.7 °C 1011.7 hPa NE 9.7 km/h 16.1 km/h 71% 0.0 mm CLR
03:30 17.9 °C 12.6 °C 1011.7 hPa NE 9.7 km/h 12.9 km/h 71% 0.0 mm CLR
03:35 17.9 °C 12.6 °C 1011.7 hPa NE 9.7 km/h 11.3 km/h 71% 0.0 mm CLR
03:40 17.9 °C 12.6 °C 1011.7 hPa NE 6.4 km/h 11.1 km/h 71% 0.0 mm CLR
03:45 17.8 °C 12.4 °C 1011.7 hPa ENE 8.0 km/h 11.3 km/h 71% 0.0 mm CLR
03:50 17.8 °C 12.4 °C 1011.7 hPa NE 6.4 km/h 7.4 km/h 71% 0.0 mm CLR
03:55 17.7 °C 12.2 °C 1011.7 hPa NE 8.0 km/h 11.3 km/h 70% 0.0 mm CLR
04:00 17.7 °C 12.4 °C 1011.7 hPa NE 8.0 km/h 12.9 km/h 71% 0.0 mm CLR
04:05 17.6 °C 12.3 °C 1011.8 hPa NE 8.0 km/h 11.3 km/h 71% 0.0 mm CLR
04:10 17.6 °C 12.3 °C 1011.8 hPa NE 4.8 km/h 8.0 km/h 71% 0.0 mm CLR
04:15 17.6 °C 12.3 °C 1011.8 hPa NE 4.8 km/h 9.7 km/h 71% 0.0 mm CLR
04:20 17.7 °C 12.3 °C 1011.8 hPa ENE 3.2 km/h 8.0 km/h 71% 0.0 mm CLR
04:25 17.6 °C 12.3 °C 1011.8 hPa ENE 3.2 km/h 8.0 km/h 71% 0.0 mm CLR
04:30 17.6 °C 12.3 °C 1011.8 hPa NE 3.2 km/h 5.8 km/h 71% 0.0 mm CLR
04:35 17.6 °C 12.3 °C 1011.9 hPa NNE 3.2 km/h 5.6 km/h 71% 0.0 mm CLR
04:40 17.5 °C 12.2 °C 1011.9 hPa NE 3.9 km/h 7.4 km/h 71% 0.0 mm CLR
04:45 17.4 °C 12.1 °C 1011.9 hPa NE 3.2 km/h 6.4 km/h 71% 0.0 mm CLR
04:50 17.4 °C 12.1 °C 1011.8 hPa NNW 3.9 km/h 7.4 km/h 71% 0.0 mm CLR
04:55 17.3 °C 12.2 °C 1011.8 hPa North 3.2 km/h 8.0 km/h 72% 0.0 mm CLR
05:00 17.3 °C 12.2 °C 1011.8 hPa NNW 3.2 km/h 8.0 km/h 72% 0.0 mm CLR
05:05 17.2 °C 12.1 °C 1011.9 hPa NNW 3.2 km/h 8.0 km/h 72% 0.0 mm CLR
05:10 17.2 °C 12.1 °C 1011.9 hPa NNE 3.2 km/h 4.7 km/h 72% 0.0 mm CLR
05:15 17.2 °C 12.3 °C 1011.9 hPa North 3.2 km/h 8.0 km/h 73% 0.0 mm CLR
05:20 17.1 °C 12.2 °C 1012.1 hPa NNW 3.2 km/h 8.0 km/h 73% 0.0 mm CLR
05:25 17.1 °C 12.2 °C 1012.1 hPa NW 3.2 km/h 9.7 km/h 73% 0.0 mm CLR
05:30 16.9 °C 12.2 °C 1012.1 hPa NNW 3.2 km/h 8.0 km/h 74% 0.0 mm CLR
05:35 16.9 °C 12.2 °C 1012.3 hPa NNW 3.2 km/h 8.0 km/h 74% 0.0 mm CLR
05:40 16.8 °C 12.3 °C 1012.3 hPa NNW 3.9 km/h 7.4 km/h 75% 0.0 mm CLR
05:45 16.7 °C 12.2 °C 1012.3 hPa NNW 3.2 km/h 8.0 km/h 75% 0.0 mm CLR
05:50 16.7 °C 12.2 °C 1012.5 hPa NNW 3.2 km/h 4.8 km/h 75% 0.0 mm CLR
05:55 16.7 °C 12.2 °C 1012.5 hPa NNW 3.2 km/h 3.2 km/h 75% 0.0 mm CLR
06:00 16.7 °C 12.2 °C 1012.5 hPa Calm     75% 0.0 mm CLR
06:05 16.7 °C 12.2 °C 1012.5 hPa Calm   3.2 km/h 75% 0.0 mm CLR
06:10 16.7 °C 12.2 °C 1012.5 hPa Calm     75% 0.0 mm CLR
06:15 16.7 °C 12.3 °C 1012.5 hPa Calm     75% 0.0 mm CLR
06:20 16.8 °C 12.3 °C 1012.6 hPa Calm     75% 0.0 mm CLR
06:25 16.7 °C 12.2 °C 1012.6 hPa Calm   4.7 km/h 75% 0.0 mm CLR
06:30 16.7 °C 12.2 °C 1012.6 hPa NE 2.3 km/h 7.4 km/h 75% 0.0 mm CLR
06:35 16.7 °C 12.2 °C 1012.7 hPa NNE 1.6 km/h 8.0 km/h 75% 0.0 mm CLR
06:40 16.7 °C 12.2 °C 1012.7 hPa NE 3.2 km/h 4.8 km/h 75% 0.0 mm CLR
06:45 16.7 °C 12.2 °C 1012.7 hPa NE 3.2 km/h 3.2 km/h 75% 0.0 mm CLR
06:50 16.7 °C 12.2 °C 1012.7 hPa NW 2.3 km/h 7.4 km/h 75% 0.0 mm CLR
06:55 16.6 °C 12.2 °C 1012.7 hPa North 1.6 km/h 8.0 km/h 75% 0.0 mm CLR
07:00 16.6 °C 12.2 °C 1012.7 hPa NW 3.2 km/h 8.0 km/h 75% 0.0 mm CLR
07:05 16.6 °C 12.2 °C 1012.8 hPa WNW 3.2 km/h 9.7 km/h 75% 0.0 mm CLR
07:10 16.6 °C 12.2 °C 1012.8 hPa NW 5.8 km/h 7.4 km/h 75% 0.0 mm CLR
07:15 16.6 °C 12.2 °C 1012.8 hPa NW 4.8 km/h 8.0 km/h 75% 0.0 mm CLR
07:20 16.6 °C 12.2 °C 1012.8 hPa NW 3.2 km/h 6.4 km/h 75% 0.0 mm CLR
07:25 16.7 °C 12.1 °C 1012.8 hPa NW 3.2 km/h 8.0 km/h 74% 0.0 mm CLR
07:30 16.8 °C 12.1 °C 1012.8 hPa NW 3.2 km/h 7.4 km/h 74% 0.0 mm CLR
07:35 16.9 °C 12.2 °C 1013.0 hPa NW 3.2 km/h 6.4 km/h 74% 0.0 mm CLR
07:40 16.9 °C 12.0 °C 1013.0 hPa NW 2.3 km/h 5.6 km/h 73% 0.0 mm CLR
07:45 17.0 °C 12.3 °C 1013.0 hPa NW 1.6 km/h 3.2 km/h 74% 0.0 mm CLR
07:50 17.1 °C 12.2 °C 1013.1 hPa Calm   4.8 km/h 73% 0.0 mm CLR
07:55 17.3 °C 12.4 °C 1013.1 hPa Calm   3.2 km/h 73% 0.0 mm CLR
08:00 17.7 °C 12.6 °C 1013.1 hPa Calm   4.8 km/h 72% 0.0 mm CLR
08:05 18.2 °C 12.6 °C 1013.2 hPa Calm   3.2 km/h 70% 0.0 mm CLR
08:10 18.6 °C 12.6 °C 1013.2 hPa Calm     68% 0.0 mm CLR
08:15 18.7 °C 12.4 °C 1013.2 hPa Calm   4.8 km/h 67% 0.0 mm CLR
08:20 19.0 °C 12.5 °C 1013.2 hPa Calm     66% 0.0 mm CLR
08:25 19.2 °C 12.0 °C 1013.2 hPa Calm   8.0 km/h 63% 0.0 mm CLR
08:30 19.3 °C 12.1 °C 1013.2 hPa NE 3.2 km/h 8.0 km/h 63% 0.0 mm CLR
08:35 19.4 °C 11.7 °C 1013.3 hPa ENE 3.2 km/h 8.0 km/h 61% 0.0 mm CLR
08:40 19.3 °C 12.1 °C 1013.3 hPa ENE 3.2 km/h 8.0 km/h 63% 0.0 mm CLR
08:45 19.2 °C 11.5 °C 1013.3 hPa NE 3.9 km/h 9.3 km/h 61% 0.0 mm CLR
08:50 19.2 °C 11.5 °C 1013.5 hPa ENE 5.8 km/h 5.6 km/h 61% 0.0 mm CLR
08:55 19.2 °C 11.7 °C 1013.5 hPa NNE 5.8 km/h 11.1 km/h 62% 0.0 mm CLR
09:00 19.2 °C 11.7 °C 1013.5 hPa NNE 8.0 km/h 9.7 km/h 62% 0.0 mm CLR
09:05 19.2 °C 11.7 °C 1013.4 hPa North 8.0 km/h 9.7 km/h 62% 0.0 mm CLR
09:10 19.3 °C 11.3 °C 1013.4 hPa North 5.0 km/h 13.0 km/h 60% 0.0 mm CLR
09:15 19.3 °C 11.6 °C 1013.4 hPa NNE 4.8 km/h 12.9 km/h 61% 0.0 mm CLR
09:20 19.4 °C 11.2 °C 1013.5 hPa NE 4.8 km/h 14.5 km/h 59% 0.0 mm CLR
09:25 19.6 °C 11.4 °C 1013.5 hPa NE 4.8 km/h 14.5 km/h 59% 0.0 mm CLR
09:30 19.4 °C 10.9 °C 1013.5 hPa NE 9.7 km/h 17.7 km/h 58% 0.0 mm CLR
09:35 19.6 °C 10.8 °C 1013.5 hPa NE 9.7 km/h 12.9 km/h 57% 0.0 mm CLR
09:40 19.7 °C 10.7 °C 1013.5 hPa ENE 8.4 km/h 18.5 km/h 56% 0.0 mm CLR
09:45 19.7 °C 10.4 °C 1013.5 hPa NE 8.0 km/h 19.3 km/h 55% 0.0 mm CLR
09:50 19.8 °C 10.5 °C 1013.4 hPa NE 11.3 km/h 19.3 km/h 55% 0.0 mm CLR
09:55 19.9 °C 10.3 °C 1013.4 hPa ENE 11.3 km/h 16.1 km/h 54% 0.0 mm CLR
10:00 20.2 °C 10.6 °C 1013.4 hPa ENE 9.7 km/h 16.1 km/h 54% 0.0 mm CLR
10:05 20.2 °C 10.6 °C 1013.3 hPa ENE 9.7 km/h 19.3 km/h 54% 0.0 mm CLR
10:10 20.1 °C 10.5 °C 1013.3 hPa ENE 9.5 km/h 20.4 km/h 54% 0.0 mm CLR
10:15 20.2 °C 10.0 °C 1013.3 hPa ENE 9.7 km/h 19.3 km/h 52% 0.0 mm CLR
10:20 20.3 °C 9.8 °C 1013.3 hPa ENE 9.7 km/h 20.9 km/h 51% 0.0 mm CLR
10:25 20.3 °C 9.6 °C 1013.3 hPa NE 9.7 km/h 20.9 km/h 50% 0.0 mm CLR
10:30 20.6 °C 9.8 °C 1013.3 hPa ENE 10.0 km/h 14.8 km/h 50% 0.0 mm CLR
10:35 20.7 °C 9.3 °C 1013.3 hPa ENE 9.7 km/h 22.5 km/h 48% 0.0 mm CLR
10:40 20.6 °C 8.9 °C 1013.3 hPa ENE 12.9 km/h 22.5 km/h 47% 0.0 mm CLR
10:45 20.7 °C 8.7 °C 1013.3 hPa ENE 12.9 km/h 19.3 km/h 46% 0.0 mm CLR
10:50 20.7 °C 8.0 °C 1013.3 hPa ENE 11.1 km/h 16.7 km/h 44% 0.0 mm CLR
10:55 20.8 °C 8.1 °C 1013.3 hPa NE 11.3 km/h 19.3 km/h 44% 0.0 mm CLR
11:00 21.1 °C 8.0 °C 1013.3 hPa ENE 9.7 km/h 14.5 km/h 43% 0.0 mm CLR
11:05 21.2 °C 8.1 °C 1013.3 hPa NE 9.7 km/h 16.1 km/h 43% 0.0 mm CLR
11:10 21.2 °C 8.1 °C 1013.3 hPa NNE 8.7 km/h 13.0 km/h 43% 0.0 mm CLR
11:15 21.1 °C 8.0 °C 1013.3 hPa NE 9.7 km/h 22.5 km/h 43% 0.0 mm CLR
11:20 21.1 °C 8.0 °C 1013.3 hPa NE 11.1 km/h 11.1 km/h 43% 0.0 mm CLR
11:25 21.2 °C 8.1 °C 1013.3 hPa ESE 11.1 km/h 16.7 km/h 43% 0.0 mm CLR
11:30 21.2 °C 8.4 °C 1013.3 hPa East 10.0 km/h 9.3 km/h 44% 0.0 mm CLR
11:35 21.4 °C 8.3 °C 1013.2 hPa ENE 9.7 km/h 11.3 km/h 43% 0.0 mm CLR
11:40 21.5 °C 8.4 °C 1013.2 hPa ENE 6.9 km/h 13.0 km/h 43% 0.0 mm CLR
11:45 21.6 °C 8.4 °C 1013.2 hPa NE 8.0 km/h 16.1 km/h 43% 0.0 mm CLR
11:50 21.5 °C 8.7 °C 1013.1 hPa ESE 9.5 km/h 13.0 km/h 44% 0.0 mm CLR
11:55 21.8 °C 9.0 °C 1013.1 hPa NE 9.7 km/h 22.5 km/h 44% 0.0 mm CLR
12:00 21.8 °C 9.0 °C 1013.1 hPa NE 9.7 km/h 19.3 km/h 44% 0.0 mm CLR
12:05 21.8 °C 9.0 °C 1013.1 hPa NE 9.7 km/h 17.7 km/h 44% 0.0 mm CLR
12:10 21.9 °C 8.7 °C 1013.1 hPa NE 11.9 km/h 18.5 km/h 43% 0.0 mm CLR
12:15 22.2 °C 9.0 °C 1013.1 hPa ENE 11.3 km/h 17.7 km/h 43% 0.0 mm CLR
12:20 22.2 °C 9.0 °C 1012.9 hPa NE 9.5 km/h 13.0 km/h 43% 0.0 mm CLR
12:25 22.4 °C 9.2 °C 1012.9 hPa ENE 9.7 km/h 20.9 km/h 43% 0.0 mm CLR
12:30 22.3 °C 8.8 °C 1012.9 hPa East 9.7 km/h 20.9 km/h 42% 0.0 mm CLR
12:35 22.5 °C 8.6 °C 1012.8 hPa East 9.7 km/h 20.9 km/h 41% 0.0 mm CLR
12:40 22.4 °C 8.5 °C 1012.8 hPa ENE 8.7 km/h 20.4 km/h 41% 0.0 mm CLR
12:45 22.3 °C 8.4 °C 1012.8 hPa NE 9.7 km/h 20.9 km/h 41% 0.0 mm CLR
12:50 22.4 °C 8.8 °C 1012.7 hPa ENE 10.3 km/h 25.9 km/h 42% 0.0 mm CLR
12:55 22.7 °C 8.8 °C 1012.7 hPa ENE 11.3 km/h 24.1 km/h 41% 0.0 mm CLR
13:00 22.7 °C 8.8 °C 1012.7 hPa ENE 12.9 km/h 20.9 km/h 41% 0.0 mm CLR
13:05 22.9 °C 8.9 °C 1012.6 hPa ENE 12.9 km/h 22.5 km/h 41% 0.0 mm CLR
13:10 22.9 °C 8.9 °C 1012.6 hPa ENE 12.9 km/h 20.9 km/h 41% 0.0 mm CLR
13:15 22.7 °C 8.8 °C 1012.6 hPa ENE 12.9 km/h 25.7 km/h 41% 0.0 mm CLR
13:20 22.7 °C 9.1 °C 1012.5 hPa West 11.9 km/h 20.4 km/h 42% 0.0 mm CLR
13:25 22.9 °C 8.6 °C 1012.5 hPa ENE 11.3 km/h 16.1 km/h 40% 0.0 mm CLR
13:30 22.8 °C 8.8 °C 1012.5 hPa NNE 11.9 km/h 22.2 km/h 41% 0.0 mm CLR
13:35 22.8 °C 8.8 °C 1012.4 hPa NE 11.3 km/h 20.9 km/h 41% 0.0 mm CLR
13:40 22.8 °C 8.8 °C 1012.4 hPa NE 12.9 km/h 22.5 km/h 41% 0.0 mm CLR
13:45 22.9 °C 8.6 °C 1012.4 hPa NE 12.9 km/h 22.5 km/h 40% 0.0 mm CLR
13:50 22.9 °C 8.6 °C 1012.3 hPa ENE 11.9 km/h 18.5 km/h 40% 0.0 mm CLR
13:55 22.9 °C 8.6 °C 1012.3 hPa NE 11.3 km/h 27.4 km/h 40% 0.0 mm CLR
14:00 22.9 °C 8.9 °C 1012.3 hPa ENE 12.9 km/h 30.6 km/h 41% 0.0 mm CLR
14:05 22.8 °C 8.8 °C 1012.2 hPa ENE 12.9 km/h 27.4 km/h 41% 0.0 mm CLR
14:10 22.8 °C 8.8 °C 1012.2 hPa ENE 12.9 km/h 33.8 km/h 41% 0.0 mm CLR
14:15 22.8 °C 8.9 °C 1012.2 hPa East 12.9 km/h 33.8 km/h 41% 0.0 mm CLR
14:20 22.7 °C 9.1 °C 1012.0 hPa NE 16.1 km/h 31.5 km/h 42% 0.0 mm CLR
14:25 22.8 °C 9.2 °C 1012.0 hPa NE 16.1 km/h 27.4 km/h 42% 0.0 mm CLR
14:30 22.9 °C 9.3 °C 1012.0 hPa North 16.4 km/h 17.2 km/h 42% 0.0 mm CLR
14:35 23.1 °C 9.5 °C 1011.9 hPa ENE 16.4 km/h 16.7 km/h 42% 0.0 mm CLR
14:40 23.2 °C 9.9 °C 1011.9 hPa East 14.0 km/h 14.8 km/h 43% 0.0 mm CLR
14:45 23.4 °C 9.8 °C 1011.9 hPa NE 14.5 km/h 25.7 km/h 42% 0.0 mm CLR
14:50 23.6 °C 9.9 °C 1011.9 hPa ENE 12.9 km/h 25.7 km/h 42% 0.0 mm CLR
14:55 23.3 °C 10.0 °C 1011.9 hPa East 12.9 km/h 29.0 km/h 43% 0.0 mm CLR
15:00 23.2 °C 10.6 °C 1011.9 hPa ENE 16.1 km/h 32.2 km/h 45% 0.0 mm CLR
15:05 23.3 °C 10.7 °C 1011.7 hPa ENE 16.1 km/h 30.6 km/h 45% 0.0 mm CLR
15:10 23.2 °C 10.9 °C 1011.7 hPa ENE 12.9 km/h 29.0 km/h 46% 0.0 mm CLR
15:15 23.4 °C 11.1 °C 1011.7 hPa ENE 12.9 km/h 25.7 km/h 46% 0.0 mm CLR
15:20 23.3 °C 11.3 °C 1011.6 hPa East 15.6 km/h 20.4 km/h 47% 0.0 mm CLR
15:25 23.6 °C 11.3 °C 1011.6 hPa ENE 14.5 km/h 25.7 km/h 46% 0.0 mm CLR
15:30 23.4 °C 11.1 °C 1011.6 hPa ENE 12.9 km/h 24.1 km/h 46% 0.0 mm CLR
15:35 23.1 °C 11.2 °C 1011.5 hPa ESE 13.0 km/h 24.1 km/h 47% 0.0 mm CLR
15:40 23.3 °C 11.3 °C 1011.5 hPa ENE 16.1 km/h 22.2 km/h 47% 0.0 mm CLR
15:45 23.6 °C 11.6 °C 1011.5 hPa East 16.1 km/h 22.5 km/h 47% 0.0 mm CLR
15:50 23.6 °C 12.3 °C 1011.4 hPa ENE 12.9 km/h 24.1 km/h 49% 0.0 mm CLR
15:55 23.7 °C 12.1 °C 1011.4 hPa NE 12.9 km/h 33.8 km/h 48% 0.0 mm CLR
16:00 23.3 °C 11.9 °C 1011.4 hPa NE 16.1 km/h 29.0 km/h 49% 0.0 mm CLR
16:05 23.4 °C 12.1 °C 1011.2 hPa ENE 16.1 km/h 20.9 km/h 49% 0.0 mm CLR
16:10 23.8 °C 12.4 °C 1011.2 hPa NE 13.0 km/h 25.9 km/h 49% 0.0 mm CLR
16:15 23.8 °C 12.4 °C 1011.2 hPa ENE 12.9 km/h 30.6 km/h 49% 0.0 mm CLR
16:20 23.8 °C 12.4 °C 1011.0 hPa East 14.0 km/h 22.2 km/h 49% 0.0 mm CLR
16:25 24.0 °C 12.6 °C 1011.0 hPa ENE 14.0 km/h 24.1 km/h 49% 0.0 mm CLR
16:30 24.1 °C 12.7 °C 1011.0 hPa ENE 13.7 km/h 18.5 km/h 49% 0.0 mm CLR
16:35 24.1 °C 12.4 °C 1011.1 hPa ENE 12.9 km/h 22.5 km/h 48% 0.0 mm CLR
16:40 24.1 °C 12.4 °C 1011.1 hPa NE 12.2 km/h 22.2 km/h 48% 0.0 mm CLR
16:45 23.9 °C 12.6 °C 1011.1 hPa ENE 12.9 km/h 30.6 km/h 49% 0.0 mm CLR
16:50 23.7 °C 12.3 °C 1010.9 hPa NE 16.1 km/h 24.1 km/h 49% 0.0 mm CLR
16:55 23.7 °C 12.7 °C 1010.9 hPa ENE 16.1 km/h 22.5 km/h 50% 0.0 mm CLR
17:00 23.8 °C 12.7 °C 1010.9 hPa ENE 14.5 km/h 33.8 km/h 50% 0.0 mm CLR
17:05 23.7 °C 13.0 °C 1010.9 hPa NE 14.5 km/h 30.6 km/h 51% 0.0 mm CLR
17:10 23.4 °C 13.0 °C 1010.9 hPa ENE 19.8 km/h 22.2 km/h 52% 0.0 mm CLR
17:15 23.4 °C 13.0 °C 1010.9 hPa NE 20.9 km/h 40.2 km/h 52% 0.0 mm CLR
17:20 23.3 °C 13.2 °C 1010.9 hPa ENE 18.0 km/h 33.3 km/h 53% 0.0 mm CLR
17:25 23.4 °C 13.3 °C 1010.9 hPa ENE 19.3 km/h 35.4 km/h 53% 0.0 mm CLR
17:30 23.2 °C 13.1 °C 1010.9 hPa ENE 16.1 km/h 37.0 km/h 53% 0.0 mm CLR
17:35 23.2 °C 13.1 °C 1010.9 hPa NE 16.1 km/h 29.0 km/h 53% 0.0 mm CLR
17:40 23.1 °C 13.2 °C 1010.9 hPa NE 19.3 km/h 27.4 km/h 54% 0.0 mm CLR
17:45 23.2 °C 13.4 °C 1010.9 hPa ENE 19.3 km/h 25.7 km/h 54% 0.0 mm CLR
17:50 23.1 °C 13.3 °C 1010.8 hPa ENE 14.8 km/h 29.6 km/h 54% 0.0 mm CLR
17:55 22.9 °C 13.4 °C 1010.8 hPa NE 14.5 km/h 35.4 km/h 55% 0.0 mm CLR
18:00 22.8 °C 13.6 °C 1010.8 hPa NE 20.9 km/h 30.6 km/h 56% 0.0 mm CLR
18:05 22.9 °C 13.7 °C 1010.8 hPa NE 19.8 km/h 29.6 km/h 56% 0.0 mm CLR
18:10 22.8 °C 13.6 °C 1010.8 hPa NE 16.1 km/h 27.4 km/h 56% 0.0 mm CLR
18:15 22.8 °C 13.6 °C 1010.8 hPa ENE 16.1 km/h 27.4 km/h 56% 0.0 mm CLR
18:20 22.7 °C 13.7 °C 1010.6 hPa ENE 16.1 km/h 33.8 km/h 57% 0.0 mm CLR
18:25 22.5 °C 13.8 °C 1010.6 hPa NE 16.1 km/h 33.8 km/h 58% 0.0 mm CLR
18:30 22.4 °C 14.0 °C 1010.6 hPa NE 20.9 km/h 35.4 km/h 59% 0.0 mm CLR
18:35 22.4 °C 14.0 °C 1010.6 hPa NE 20.9 km/h 32.2 km/h 59% 0.0 mm CLR
18:40 22.6 °C 13.9 °C 1010.6 hPa NE 16.1 km/h 25.7 km/h 58% 0.0 mm CLR
18:45 22.5 °C 14.1 °C 1010.6 hPa West 16.4 km/h 22.2 km/h 59% 0.0 mm CLR
18:50 22.6 °C 14.2 °C 1010.5 hPa NNE 14.8 km/h 20.4 km/h 59% 0.0 mm CLR
18:55 22.6 °C 14.4 °C 1010.5 hPa ENE 14.5 km/h 27.4 km/h 60% 0.0 mm CLR
19:00 22.4 °C 14.5 °C 1010.5 hPa NE 14.5 km/h 24.1 km/h 61% 0.0 mm CLR
19:05 22.3 °C 14.4 °C 1010.5 hPa ENE 14.5 km/h 27.4 km/h 61% 0.0 mm CLR
19:10 22.2 °C 14.6 °C 1010.5 hPa NE 16.1 km/h 30.6 km/h 62% 0.0 mm CLR
19:15 22.3 °C 14.4 °C 1010.5 hPa NE 16.1 km/h 27.4 km/h 61% 0.0 mm CLR
19:20 22.1 °C 14.7 °C 1010.5 hPa NE 16.1 km/h 27.4 km/h 63% 0.0 mm CLR
19:25 22.1 °C 14.7 °C 1010.5 hPa NE 16.1 km/h 32.2 km/h 63% 0.0 mm CLR
19:30 21.7 °C 14.6 °C 1010.5 hPa NE 16.1 km/h 25.7 km/h 64% 0.0 mm CLR
19:35 21.7 °C 14.8 °C 1010.5 hPa NE 16.1 km/h 25.7 km/h 65% 0.0 mm CLR
19:40 21.6 °C 14.7 °C 1010.5 hPa North 15.6 km/h 16.7 km/h 65% 0.0 mm CLR
19:45 21.7 °C 14.8 °C 1010.5 hPa NE 14.5 km/h 32.2 km/h 65% 0.0 mm CLR
19:50 21.6 °C 14.7 °C 1010.4 hPa East 16.1 km/h 22.2 km/h 65% 0.0 mm CLR
19:55 21.7 °C 15.0 °C 1010.4 hPa NE 16.1 km/h 30.6 km/h 66% 0.0 mm CLR
20:00 21.3 °C 14.7 °C 1010.4 hPa NE 14.5 km/h 30.6 km/h 66% 0.0 mm CLR
20:05 21.2 °C 14.8 °C 1010.6 hPa ENE 15.6 km/h 14.8 km/h 67% 0.0 mm CLR
20:10 21.2 °C 14.8 °C 1010.6 hPa ESE 14.0 km/h 18.5 km/h 67% 0.0 mm CLR
20:15 21.1 °C 14.9 °C 1010.6 hPa NE 14.5 km/h 32.2 km/h 68% 0.0 mm CLR
20:20 20.9 °C 14.8 °C 1010.7 hPa ENE 16.1 km/h 27.4 km/h 68% 0.0 mm CLR
20:25 20.9 °C 15.0 °C 1010.7 hPa ENE 16.1 km/h 24.1 km/h 69% 0.0 mm CLR
20:30 20.9 °C 15.0 °C 1010.7 hPa ENE 13.7 km/h 19.0 km/h 69% 0.0 mm CLR
20:35 20.8 °C 15.1 °C 1010.6 hPa NE 12.9 km/h 24.1 km/h 70% 0.0 mm CLR
20:40 20.7 °C 15.1 °C 1010.6 hPa NE 13.7 km/h 18.5 km/h 70% 0.0 mm CLR
20:45 20.7 °C 15.1 °C 1010.6 hPa NE 12.9 km/h 25.7 km/h 70% 0.0 mm CLR
20:50 20.6 °C 15.2 °C 1010.8 hPa NNE 13.0 km/h 18.5 km/h 71% 0.0 mm CLR
20:55 20.6 °C 15.4 °C 1010.8 hPa NE 12.9 km/h 20.9 km/h 72% 0.0 mm CLR
21:00 20.6 °C 15.3 °C 1010.8 hPa NE 11.3 km/h 22.5 km/h 72% 0.0 mm CLR
21:05 20.4 °C 15.2 °C 1010.9 hPa ENE 11.3 km/h 24.1 km/h 72% 0.0 mm CLR
21:10 20.4 °C 15.4 °C 1010.9 hPa ENE 12.9 km/h 24.1 km/h 73% 0.0 mm CLR
21:15 20.3 °C 15.3 °C 1010.9 hPa ENE 12.9 km/h 22.5 km/h 73% 0.0 mm CLR
21:20 20.3 °C 15.3 °C 1011.1 hPa NE 11.9 km/h 18.5 km/h 73% 0.0 mm CLR
21:25 20.3 °C 15.3 °C 1011.1 hPa ENE 11.3 km/h 19.3 km/h 73% 0.0 mm CLR
21:30 20.3 °C 15.3 °C 1011.1 hPa NE 12.2 km/h 18.5 km/h 73% 0.0 mm CLR
21:35 20.2 °C 15.4 °C 1011.1 hPa NE 12.9 km/h 22.5 km/h 74% 0.0 mm CLR
21:40 20.3 °C 15.5 °C 1011.1 hPa NE 11.3 km/h 19.3 km/h 74% 0.0 mm CLR
21:45 20.3 °C 15.5 °C 1011.1 hPa NE 11.3 km/h 22.5 km/h 74% 0.0 mm CLR
21:50 20.2 °C 15.4 °C 1011.3 hPa NE 12.9 km/h 32.2 km/h 74% 0.0 mm CLR
21:55 20.1 °C 15.6 °C 1011.3 hPa NE 12.9 km/h 24.1 km/h 75% 0.0 mm CLR
22:00 20.1 °C 15.6 °C 1011.3 hPa NE 14.5 km/h 22.5 km/h 75% 0.0 mm CLR
22:05 20.0 °C 15.7 °C 1011.4 hPa NE 14.5 km/h 24.1 km/h 76% 0.0 mm CLR
22:10 19.9 °C 15.6 °C 1011.4 hPa NE 12.9 km/h 22.5 km/h 76% 0.0 mm CLR
22:15 19.9 °C 15.6 °C 1011.4 hPa NE 12.9 km/h 20.9 km/h 76% 0.0 mm CLR
22:20 19.9 °C 15.7 °C 1011.5 hPa NE 13.7 km/h 16.7 km/h 77% 0.0 mm CLR
22:25 19.8 °C 15.7 °C 1011.5 hPa NE 12.9 km/h 25.7 km/h 77% 0.0 mm CLR
22:30 19.9 °C 15.7 °C 1011.5 hPa NE 12.9 km/h 20.9 km/h 77% 0.0 mm CLR
22:35 19.9 °C 15.6 °C 1011.7 hPa NE 12.9 km/h 24.1 km/h 76% 0.0 mm CLR
22:40 19.9 °C 15.6 °C 1011.7 hPa NE 12.9 km/h 24.1 km/h 76% 0.0 mm CLR
22:45 19.9 °C 15.6 °C 1011.7 hPa NE 12.9 km/h 19.3 km/h 76% 0.0 mm CLR
22:50 19.9 °C 15.7 °C 1011.8 hPa NE 11.3 km/h 19.3 km/h 77% 0.0 mm CLR
22:55 19.8 °C 15.7 °C 1011.8 hPa NE 11.3 km/h 20.9 km/h 77% 0.0 mm CLR
23:00 19.7 °C 15.8 °C 1011.8 hPa NE 11.3 km/h 20.9 km/h 78% 0.0 mm CLR
23:05 19.7 °C 15.8 °C 1011.8 hPa NE 11.3 km/h 19.3 km/h 78% 0.0 mm CLR
23:10 19.7 °C 15.7 °C 1011.8 hPa NE 11.3 km/h 19.3 km/h 78% 0.0 mm CLR
23:15 19.6 °C 15.8 °C 1011.8 hPa NNE 11.3 km/h 19.3 km/h 79% 0.0 mm CLR
23:20 19.5 °C 15.8 °C 1012.1 hPa NE 9.5 km/h 16.7 km/h 79% 0.0 mm CLR
23:25 19.5 °C 15.8 °C 1012.1 hPa NE 9.7 km/h 19.3 km/h 79% 0.0 mm CLR
23:30 19.6 °C 16.1 °C 1012.1 hPa NNE 8.7 km/h 14.8 km/h 80% 0.0 mm CLR
23:35 19.5 °C 15.9 °C 1012.0 hPa NNE 9.7 km/h 17.7 km/h 80% 0.0 mm CLR
23:40 19.5 °C 16.0 °C 1012.0 hPa NE 9.7 km/h 14.5 km/h 80% 0.0 mm CLR
23:45 19.6 °C 16.0 °C 1012.0 hPa NE 9.7 km/h 14.5 km/h 80% 0.0 mm CLR
23:50 19.6 °C 16.0 °C 1011.9 hPa NE 9.7 km/h 17.7 km/h 80% 0.0 mm CLR
23:55 19.5 °C 15.9 °C 1011.9 hPa NE 9.7 km/h 14.5 km/h 80% 0.0 mm CLR
Murcia-Puente Tocinos, España
Compliments of Weather Underground - 2.75 mb

La estación de MeteoMurcia.com, publica sus datos en los siguientes proyectos:

Weather Underground PWS IMURCIAP2 Meteoclimatic www.awekas.at

W3Counter
Web Analytics